This is the latest recevied weather packets stored in our database for station/object KM4CBK. If no packets are shown the sender has not sent any weather packets the latest 10 day(s).
| Time | Temp. | Humidity | Pressure | Rain* | Wind** | Luminosity | Snow |
|---|---|---|---|---|---|---|---|
| 1777708486 | 11.67° C | 99% | 1012.2 hPa | 0 mm | - | 0 W/m² | - |
| 1777708184 | 11.67° C | 99% | 1012.4 hPa | 1.78 mm | - | 0 W/m² | - |
| 1777707883 | 11.67° C | 99% | 1012.4 hPa | 2.29 mm | - | 0 W/m² | - |
| 1777707578 | 11.67° C | 99% | 1012.4 hPa | 1.78 mm | - | 0 W/m² | - |
| 1777707274 | 11.67° C | 99% | 1012.4 hPa | 1.27 mm | - | 0 W/m² | - |
| 1777706972 | 11.67° C | 99% | 1012.8 hPa | 1.78 mm | - | 0 W/m² | - |
| 1777706669 | 11.67° C | 99% | 1013.3 hPa | 1.78 mm | - | 0 W/m² | - |
| 1777706367 | 11.67° C | 99% | 1012.9 hPa | 1.27 mm | - | 0 W/m² | - |
| 1777706064 | 12.22° C | 99% | 1012.9 hPa | 0.51 mm | - | 0 W/m² | - |
| 1777705762 | 12.22° C | 99% | 1012.8 hPa | 0 mm | - | 0 W/m² | - |
| 1777705460 | 12.22° C | 99% | 1012.7 hPa | 0.51 mm | - | 0 W/m² | - |
| 1777705159 | 12.22° C | 99% | 1012.4 hPa | 0.51 mm | - | 0 W/m² | - |
| 1777704856 | 12.22° C | 99% | 1012.3 hPa | 1.27 mm | - | 0 W/m² | - |
| 1777704554 | 12.22° C | 99% | 1012.4 hPa | 0.51 mm | - | 0 W/m² | - |
| 1777704252 | 11.67° C | 99% | 1012.3 hPa | 0.51 mm | - | 0 W/m² | - |
| 1777703949 | 12.22° C | 99% | 1012.4 hPa | 1.27 mm | - | 0 W/m² | - |
| 1777703646 | 11.67° C | 99% | 1012.3 hPa | 2.29 mm | - | 0 W/m² | - |
| 1777703344 | 11.67° C | 99% | 1012.4 hPa | 2.29 mm | - | 0 W/m² | - |
| 1777703041 | 11.67° C | 99% | 1012.3 hPa | 1.78 mm | - | 0 W/m² | - |
| 1777702740 | 12.22° C | 99% | 1012.5 hPa | 1.27 mm | - | 0 W/m² | - |
| 1777702437 | 12.22° C | 99% | 1012.5 hPa | 1.27 mm | - | 0 W/m² | - |
| 1777702133 | 12.22° C | 99% | 1012.7 hPa | 1.27 mm | - | 0 W/m² | - |
| 1777701828 | 12.22° C | 99% | 1012.8 hPa | 1.78 mm | - | 0 W/m² | - |
| 1777701526 | 12.22° C | 99% | 1012.6 hPa | 1.27 mm | - | 0 W/m² | - |
| 1777701223 | 12.22° C | 99% | 1012.5 hPa | 1.78 mm | - | 0 W/m² | - |
* Rain latest hour (hover to see other rain measurements)
** Current wind speed in m/s (hover to see current wind gust speed)